Location: Unspecified
(0.0000°N, 0.0000°E)
Time: 00:46:26
(UTC+00:00)

N. Korean satellite - Pass Details

Date: 30 March 2017
Orbit: 461 x 520 km, 97.2° (Epoch: 28 March)

Event Time Altitude Azimuth Distance (km) Brightness Sun altitude
Rises 19:21:59 0° 194° (SSW) 2,597 10.4 -19.4°
Reaches altitude 10° 19:24:32 10° 212° (SSW) 1,699 9.7 -20.0°
Maximum altitude 19:27:09 19° 258° (WSW) 1,234 9.5 -20.6°
Drops below altitude 10° 19:29:44 10° 304° (NW) 1,668 10.1 -21.3°
Sets 19:32:13 0° 323° (NW) 2,532 10.8 -21.9°
